weather.gov     
National Weather Service

Terminal Aerodrome Forecast
NWS Homepage
This page is being discontinued on March 12, 2014.
The same data is available at this site. Please update your bookmarks.
Thank you, and we apologize for the inconvenience.
Please send an email to SR-SRH.Webmaster@noaa.gov with any concerns.


Current Version
Previous Version:    01  02  03  04  05  06  07  08  09  10  11  12  13  14  15  16  17  18  19  20  21  22  23  24  25  26  27  28  29  30  
   31  32  33  
[Printable]
068
FTAK31 PAJN 222300
TAFAJN
TAF
PAJN 222320Z 2300/2324 09014KT P6SM SCT050 BKN100 BKN200
     FM230300 07006KT P6SM VCSH SCT060 BKN100
     FM230700 08005KT P6SM SCT050 OVC100
     FM231200 09008KT P6SM BKN040 OVC080
     FM232100 12012KT P6SM VCSH BKN035 OVC070=


U.S. Dept. of Commerce
NOAA National Weather Service
1325 East West Highway
Silver Spring, MD 20910
E-mail: w-nws.webmaster@noaa.gov
Page last modified: May 16, 2007
NATIONAL WEATHER SERVICE: for Safety, for Work, for Fun - FOR LIFE